Location: Marcé
(47.5801°N, 0.3280°W)
Time: 14:52:59
(UTC+01:00)

Vanguard 3 - Pass Details

Date: 10 December 2021
Orbit: 508 x 3260 km, 33.3° (Epoch: 20 January)

Event Time Altitude Azimuth Distance (km) Brightness Sun altitude
Rises 02:07:16 0° 217° (SW) 6,085 - -61.3°
Reaches altitude 10° 02:11:22 10° 210° (SSW) 5,396 - -60.9°
Maximum altitude 02:26:19 37° 151° (SSE) 4,273 - -59.2°
Exits shadow 02:31:13 33° 127° (SE) 4,527 10.7 -58.6°
Drops below altitude 10° 02:43:00 10° 94° (E) 6,038 11.8 -57.1°
Sets 02:47:53 0° 87° (E) 6,861 12.3 -56.5°
